QPF
0.03 0.03 0.03 0.02 0.02 0.01 0.00 0.00 0.00 0.00 0.00 0.00 0.01 0.01 0.01 0.02 0.02 0.03 0.07 0.11 0.14 0.17 0.18 0.20 0.25 0.26 0.22 0.15 0.10 0.06 0.03 0.01 0.01 0.00 0.00 0.00 0.00 0.00 0.00 0.00 0.00 0.00 0.00
0.02 0.02 0.02 0.02 0.01 0.01 0.01 0.01 0.01 0.01 0.01 0.01 0.03 0.03 0.02 0.02 0.03 0.04 0.04 0.06 0.08 0.10 0.15 0.20 0.22 0.24 0.25 0.23 0.20 0.17 0.11 0.07 0.05 0.03 0.01 0.00 0.00 0.00 0.00 0.00 0.00 0.00 0.00
0.02 0.02 0.02 0.02 0.02 0.02 0.02 0.02 0.03 0.04 0.05 0.06 0.07 0.05 0.04 0.04 0.04 0.04 0.06 0.07 0.08 0.09 0.10 0.12 0.14 0.17 0.22 0.24 0.29 0.33 0.31 0.22 0.15 0.12 0.08 0.04 0.01 0.00 0.00 0.00 0.00 0.00 0.00
0.01 0.01 0.01 0.02 0.02 0.02 0.02 0.05 0.09 0.13 0.16 0.16 0.13 0.08 0.06 0.05 0.06 0.07 0.07 0.07 0.07 0.07 0.07 0.06 0.07 0.09 0.12 0.16 0.24 0.34 0.42 0.39 0.30 0.24 0.18 0.12 0.05 0.01 0.00 0.00 0.00 0.00 0.00
0.00 0.01 0.02 0.04 0.05 0.07 0.09 0.14 0.25 0.36 0.38 0.31 0.20 0.13 0.10 0.08 0.07 0.06 0.06 0.06 0.07 0.06 0.04 0.04 0.03 0.04 0.05 0.07 0.13 0.21 0.36 0.46 0.43 0.35 0.29 0.24 0.14 0.04 0.01 0.00 0.00 0.00 0.00
0.02 0.05 0.11 0.16 0.22 0.28 0.41 0.57 0.70 0.71 0.57 0.40 0.25 0.16 0.12 0.09 0.06 0.06 0.06 0.06 0.06 0.05 0.04 0.03 0.03 0.03 0.03 0.03 0.05 0.11 0.21 0.37 0.45 0.41 0.33 0.31 0.27 0.18 0.10 0.04 0.01 0.00 0.00
0.08 0.13 0.26 0.40 0.52 0.62 0.73 0.84 0.93 0.89 0.62 0.37 0.22 0.14 0.09 0.07 0.05 0.04 0.04 0.03 0.02 0.02 0.02 0.01 0.01 0.01 0.01 0.02 0.03 0.06 0.11 0.23 0.36 0.40 0.36 0.31 0.27 0.23 0.18 0.11 0.07 0.04 0.01
0.17 0.25 0.34 0.46 0.61 0.72 0.75 0.74 0.72 0.62 0.44 0.28 0.16 0.11 0.07 0.05 0.03 0.02 0.01 0.01 0.01 0.01 0.00 0.00 0.00 0.00 0.00 0.00 0.01 0.02 0.05 0.12 0.22 0.30 0.32 0.29 0.24 0.21 0.16 0.12 0.10 0.08 0.04
0.21 0.33 0.43 0.56 0.69 0.78 0.75 0.60 0.51 0.39 0.27 0.19 0.13 0.09 0.06 0.03 0.02 0.01 0.01 0.00 0.00 0.00 0.00 0.00 0.00 0.00 0.00 0.00 0.00 0.00 0.01 0.04 0.10 0.19 0.25 0.25 0.23 0.20 0.16 0.13 0.12 0.10 0.07
0.17 0.32 0.50 0.71 0.82 0.68 0.53 0.42 0.32 0.25 0.18 0.15 0.11 0.08 0.05 0.03 0.01 0.01 0.01 0.00 0.00 0.00 0.00 0.00 0.00 0.00 0.00 0.00 0.00 0.00 0.01 0.02 0.05 0.10 0.15 0.18 0.19 0.19 0.18 0.15 0.12 0.11 0.09
0.10 0.19 0.35 0.61 0.68 0.51 0.31 0.24 0.23 0.22 0.18 0.15 0.11 0.08 0.05 0.04 0.02 0.01 0.01 0.01 0.01 0.00 0.00 0.00 0.00 0.00 0.00 0.00 0.00 0.00 0.00 0.01 0.01 0.03 0.05 0.10 0.16 0.18 0.18 0.17 0.13 0.11 0.10
0.09 0.11 0.23 0.36 0.37 0.29 0.20 0.17 0.20 0.22 0.20 0.18 0.13 0.09 0.07 0.05 0.04 0.03 0.02 0.02 0.01 0.01 0.00 0.00 0.00 0.00 0.00 0.00 0.00 0.00 0.00 0.00 0.00 0.00 0.01 0.03 0.08 0.11 0.15 0.16 0.14 0.12 0.11
0.05 0.08 0.10 0.15 0.16 0.13 0.12 0.13 0.22 0.28 0.29 0.24 0.16 0.11 0.08 0.06 0.05 0.04 0.03 0.02 0.01 0.01 0.00 0.00 0.00 0.01 0.00 0.00 0.00 0.00 0.00 0.00 0.00 0.00 0.00 0.00 0.02 0.04 0.06 0.10 0.13 0.15 0.15
0.07 0.08 0.07 0.08 0.09 0.09 0.10 0.12 0.18 0.25 0.28 0.28 0.22 0.17 0.13 0.10 0.08 0.06 0.06 0.05 0.04 0.03 0.02 0.01 0.01 0.01 0.01 0.01 0.01 0.00 0.00 0.00 0.00 0.00 0.00 0.00 0.00 0.01 0.02 0.06 0.09 0.13 0.17
0.08 0.10 0.10 0.09 0.08 0.09 0.09 0.09 0.12 0.17 0.22 0.24 0.20 0.16 0.14 0.14 0.12 0.09 0.09 0.09 0.08 0.05 0.03 0.02 0.02 0.02 0.03 0.03 0.02 0.01 0.00 0.00 0.00 0.00 0.00 0.00 0.00 0.00 0.01 0.02 0.05 0.10 0.16
0.06 0.08 0.09 0.08 0.05 0.05 0.05 0.05 0.07 0.10 0.13 0.15 0.16 0.15 0.15 0.14 0.11 0.09 0.10 0.10 0.09 0.07 0.05 0.05 0.04 0.03 0.04 0.06 0.03 0.02 0.01 0.00 0.00 0.00 0.00 0.00 0.00 0.01 0.02 0.03 0.03 0.05 0.09
0.02 0.03 0.03 0.03 0.03 0.03 0.03 0.03 0.03 0.05 0.06 0.08 0.09 0.11 0.11 0.11 0.09 0.08 0.08 0.08 0.07 0.07 0.06 0.06 0.04 0.03 0.06 0.08 0.03 0.02 0.01 0.01 0.00 0.00 0.00 0.00 0.00 0.00 0.00 0.01 0.02 0.03 0.06
0.01 0.01 0.01 0.01 0.01 0.01 0.01 0.01 0.01 0.02 0.02 0.02 0.03 0.03 0.03 0.03 0.03 0.03 0.03 0.03 0.03 0.03 0.03 0.04 0.03 0.03 0.06 0.10 0.05 0.04 0.02 0.02 0.01 0.01 0.00 0.00 0.00 0.00 0.00 0.00 0.00 0.01 0.02
0.00 0.00 0.00 0.00 0.00 0.00 0.00 0.00 0.00 0.00 0.00 0.00 0.00 0.00 0.00 0.00 0.00 0.00 0.01 0.01 0.01 0.01 0.01 0.01 0.01 0.02 0.05 0.09 0.06 0.06 0.03 0.02 0.03 0.03 0.01 0.01 0.01 0.01 0.01 0.00 0.00 0.00 0.01
0.00 0.00 0.00 0.00 0.00 0.00 0.00 0.00 0.00 0.00 0.00 0.00 0.00 0.00 0.00 0.00 0.00 0.00 0.00 0.00 0.00 0.00 0.00 0.00 0.00 0.01 0.02 0.05 0.05 0.05 0.04 0.05 0.06 0.05 0.03 0.02 0.02 0.01 0.01 0.00 0.00 0.00 0.01
0.00 0.00 0.00 0.00 0.00 0.00 0.00 0.00 0.00 0.00 0.00 0.00 0.00 0.00 0.00 0.00 0.00 0.00 0.00 0.00 0.00 0.00 0.00 0.00 0.00 0.00 0.01 0.01 0.02 0.05 0.05 0.05 0.04 0.03 0.02 0.03 0.02 0.01 0.01 0.01 0.00 0.01 0.02
0.00 0.00 0.00 0.00 0.00 0.00 0.00 0.00 0.00 0.00 0.00 0.00 0.00 0.00 0.00 0.00 0.00 0.00 0.00 0.00 0.00 0.00 0.00 0.00 0.00 0.00 0.00 0.00 0.01 0.02 0.03 0.03 0.02 0.02 0.02 0.02 0.02 0.01 0.01 0.01 0.02 0.03 0.03
0.00 0.00 0.00 0.00 0.00 0.00 0.00 0.00 0.00 0.00 0.00 0.00 0.00 0.00 0.00 0.00 0.00 0.00 0.00 0.00 0.00 0.00 0.00 0.00 0.00 0.00 0.00 0.00 0.00 0.00 0.01 0.02 0.01 0.01 0.01 0.02 0.02 0.01 0.01 0.02 0.04 0.05 0.04
0.00 0.00 0.00 0.00 0.00 0.00 0.00 0.00 0.00 0.00 0.00 0.00 0.00 0.00 0.00 0.00 0.00 0.00 0.00 0.00 0.00 0.00 0.00 0.00 0.00 0.00 0.00 0.00 0.00 0.00 0.00 0.00 0.01 0.01 0.02 0.03 0.03 0.02 0.02 0.03 0.04 0.05 0.05
0.00 0.00 0.00 0.00 0.00 0.00 0.00 0.00 0.00 0.00 0.00 0.00 0.00 0.00 0.00 0.00 0.00 0.00 0.00 0.00 0.00 0.00 0.00 0.00 0.00 0.00 0.00 0.00 0.01 0.01 0.01 0.01 0.01 0.02 0.03 0.04 0.04 0.04 0.02 0.02 0.02 0.03 0.04
0.00 0.00 0.00 0.00 0.00 0.00 0.00 0.00 0.00 0.00 0.00 0.00 0.00 0.00 0.00 0.00 0.00 0.00 0.00 0.00 0.00 0.00 0.00 0.00 0.00 0.00 0.00 0.00 0.01 0.02 0.03 0.04 0.05 0.05 0.05 0.06 0.05 0.04 0.03 0.01 0.01 0.02 0.03
MSLP
1009.58 1008.82 1008.17 1007.66 1007.36 1007.28 1007.43 1007.79 1008.32 1008.96 1009.64 1010.33 1010.97 1011.53 1012.01 1012.39 1012.70 1012.94 1013.15 1013.33 1013.50 1013.69 1013.90 1014.17 1014.48 1014.86 1015.30 1015.77 1016.26 1016.75 1017.21 1017.60 1017.92 1018.17 1018.34 1018.45 1018.51 1018.54 1018.54 1018.52 1018.48 1018.40 1018.29
1009.66 1008.77 1007.97 1007.33 1006.92 1006.75 1006.84 1007.17 1007.72 1008.40 1009.15 1009.92 1010.64 1011.28 1011.80 1012.22 1012.52 1012.75 1012.92 1013.07 1013.22 1013.39 1013.61 1013.89 1014.24 1014.64 1015.10 1015.59 1016.09 1016.57 1017.01 1017.40 1017.72 1017.98 1018.18 1018.34 1018.47 1018.56 1018.63 1018.67 1018.67 1018.63 1018.55
1009.78 1008.77 1007.88 1007.15 1006.66 1006.44 1006.50 1006.82 1007.37 1008.08 1008.88 1009.69 1010.46 1011.13 1011.69 1012.11 1012.41 1012.61 1012.76 1012.88 1013.00 1013.16 1013.38 1013.66 1014.00 1014.41 1014.85 1015.32 1015.79 1016.25 1016.66 1017.03 1017.35 1017.63 1017.87 1018.09 1018.29 1018.47 1018.62 1018.74 1018.80 1018.82 1018.77
1009.95 1008.89 1007.94 1007.19 1006.67 1006.44 1006.48 1006.81 1007.36 1008.07 1008.88 1009.70 1010.47 1011.14 1011.68 1012.09 1012.37 1012.55 1012.67 1012.77 1012.87 1013.02 1013.22 1013.48 1013.80 1014.17 1014.58 1015.00 1015.42 1015.82 1016.19 1016.53 1016.85 1017.14 1017.42 1017.70 1017.97 1018.24 1018.48 1018.68 1018.83 1018.91 1018.91
1010.19 1009.13 1008.20 1007.47 1006.98 1006.76 1006.82 1007.14 1007.69 1008.38 1009.15 1009.94 1010.66 1011.29 1011.79 1012.15 1012.40 1012.55 1012.65 1012.74 1012.83 1012.96 1013.13 1013.36 1013.65 1013.96 1014.31 1014.66 1015.01 1015.34 1015.66 1015.97 1016.27 1016.57 1016.88 1017.21 1017.55 1017.89 1018.21 1018.49 1018.71 1018.85 1018.91
1010.52 1009.51 1008.64 1007.97 1007.55 1007.38 1007.46 1007.78 1008.30 1008.94 1009.64 1010.34 1010.98 1011.52 1011.95 1012.26 1012.46 1012.59 1012.68 1012.76 1012.84 1012.96 1013.12 1013.31 1013.54 1013.80 1014.07 1014.34 1014.61 1014.88 1015.14 1015.41 1015.68 1015.98 1016.30 1016.65 1017.03 1017.42 1017.79 1018.14 1018.42 1018.62 1018.74
1010.91 1009.99 1009.22 1008.65 1008.31 1008.19 1008.30 1008.61 1009.07 1009.63 1010.22 1010.80 1011.32 1011.76 1012.09 1012.34 1012.50 1012.62 1012.70 1012.79 1012.88 1012.99 1013.14 1013.30 1013.49 1013.68 1013.88 1014.08 1014.28 1014.48 1014.69 1014.91 1015.15 1015.43 1015.74 1016.09 1016.47 1016.87 1017.27 1017.65 1017.97 1018.22 1018.38
1011.34 1010.53 1009.88 1009.42 1009.16 1009.09 1009.21 1009.48 1009.87 1010.32 1010.78 1011.21 1011.60 1011.91 1012.15 1012.34 1012.47 1012.58 1012.68 1012.78 1012.89 1013.02 1013.16 1013.31 1013.46 1013.61 1013.75 1013.89 1014.03 1014.18 1014.34 1014.52 1014.72 1014.97 1015.25 1015.57 1015.92 1016.30 1016.68 1017.05 1017.39 1017.66 1017.87
1011.78 1011.09 1010.55 1010.18 1009.98 1009.95 1010.06 1010.27 1010.56 1010.88 1011.20 1011.48 1011.73 1011.92 1012.08 1012.21 1012.33 1012.44 1012.56 1012.70 1012.85 1013.00 1013.15 1013.29 1013.42 1013.54 1013.64 1013.75 1013.85 1013.97 1014.10 1014.25 1014.43 1014.63 1014.87 1015.13 1015.43 1015.75 1016.09 1016.43 1016.74 1017.03 1017.26
1012.21 1011.62 1011.17 1010.87 1010.72 1010.68 1010.75 1010.89 1011.07 1011.25 1011.42 1011.57 1011.69 1011.78 1011.87 1011.97 1012.08 1012.21 1012.37 1012.55 1012.74 1012.92 1013.08 1013.22 1013.34 1013.44 1013.54 1013.63 1013.72 1013.83 1013.96 1014.10 1014.26 1014.43 1014.61 1014.82 1015.04 1015.28 1015.55 1015.83 1016.11 1016.38 1016.62
1012.65 1012.13 1011.74 1011.47 1011.32 1011.26 1011.27 1011.31 1011.38 1011.43 1011.47 1011.50 1011.51 1011.53 1011.58 1011.65 1011.77 1011.93 1012.13 1012.34 1012.56 1012.76 1012.93 1013.08 1013.19 1013.29 1013.39 1013.48 1013.59 1013.72 1013.87 1014.02 1014.18 1014.33 1014.47 1014.62 1014.77 1014.93 1015.11 1015.32 1015.55 1015.79 1016.03
1013.10 1012.62 1012.25 1011.98 1011.81 1011.70 1011.63 1011.59 1011.55 1011.50 1011.43 1011.36 1011.30 1011.27 1011.29 1011.36 1011.49 1011.67 1011.89 1012.13 1012.35 1012.56 1012.73 1012.86 1012.97 1013.07 1013.16 1013.28 1013.42 1013.59 1013.77 1013.96 1014.13 1014.29 1014.41 1014.51 1014.60 1014.68 1014.78 1014.92 1015.09 1015.30 1015.54
1013.60 1013.14 1012.76 1012.47 1012.25 1012.08 1011.94 1011.81 1011.68 1011.55 1011.41 1011.28 1011.17 1011.11 1011.11 1011.18 1011.32 1011.51 1011.73 1011.95 1012.17 1012.35 1012.49 1012.60 1012.69 1012.77 1012.87 1013.00 1013.18 1013.39 1013.62 1013.86 1014.07 1014.24 1014.37 1014.45 1014.49 1014.52 1014.55 1014.63 1014.75 1014.92 1015.14
1014.18 1013.70 1013.30 1012.97 1012.70 1012.48 1012.27 1012.08 1011.89 1011.70 1011.51 1011.35 1011.22 1011.14 1011.13 1011.20 1011.32 1011.49 1011.69 1011.88 1012.05 1012.19 1012.28 1012.33 1012.38 1012.43 1012.52 1012.67 1012.87 1013.12 1013.40 1013.69 1013.94 1014.15 1014.29 1014.37 1014.39 1014.38 1014.38 1014.40 1014.48 1014.62 1014.81
1014.81 1014.32 1013.90 1013.54 1013.23 1012.96 1012.71 1012.48 1012.25 1012.04 1011.83 1011.65 1011.51 1011.42 1011.40 1011.44 1011.54 1011.67 1011.82 1011.95 1012.05 1012.10 1012.12 1012.11 1012.09 1012.10 1012.17 1012.30 1012.51 1012.78 1013.10 1013.43 1013.73 1013.98 1014.15 1014.23 1014.26 1014.23 1014.20 1014.19 1014.23 1014.34 1014.51
1015.48 1014.99 1014.55 1014.16 1013.83 1013.54 1013.28 1013.03 1012.80 1012.58 1012.37 1012.18 1012.04 1011.94 1011.90 1011.90 1011.96 1012.03 1012.11 1012.16 1012.17 1012.14 1012.07 1011.98 1011.89 1011.84 1011.86 1011.96 1012.16 1012.43 1012.76 1013.11 1013.44 1013.71 1013.91 1014.02 1014.05 1014.02 1013.98 1013.95 1013.97 1014.05 1014.20
1016.14 1015.64 1015.21 1014.82 1014.49 1014.21 1013.95 1013.72 1013.50 1013.29 1013.09 1012.91 1012.76 1012.65 1012.57 1012.54 1012.53 1012.54 1012.54 1012.50 1012.43 1012.31 1012.15 1011.98 1011.81 1011.70 1011.66 1011.72 1011.87 1012.12 1012.43 1012.77 1013.10 1013.38 1013.59 1013.72 1013.76 1013.74 1013.70 1013.66 1013.66 1013.72 1013.85
1016.71 1016.23 1015.81 1015.45 1015.14 1014.88 1014.66 1014.46 1014.27 1014.08 1013.91 1013.74 1013.58 1013.45 1013.34 1013.26 1013.19 1013.13 1013.05 1012.94 1012.80 1012.60 1012.38 1012.13 1011.91 1011.73 1011.62 1011.61 1011.70 1011.89 1012.15 1012.46 1012.76 1013.03 1013.23 1013.36 1013.41 1013.41 1013.37 1013.34 1013.33 1013.37 1013.48
1017.15 1016.70 1016.31 1015.98 1015.71 1015.49 1015.31 1015.15 1015.00 1014.85 1014.70 1014.54 1014.38 1014.23 1014.09 1013.97 1013.85 1013.74 1013.60 1013.44 1013.24 1013.00 1012.73 1012.44 1012.16 1011.93 1011.76 1011.67 1011.69 1011.80 1011.98 1012.22 1012.46 1012.69 1012.87 1013.00 1013.06 1013.06 1013.04 1013.01 1013.00 1013.05 1013.14
1017.42 1017.00 1016.64 1016.35 1016.12 1015.95 1015.82 1015.71 1015.61 1015.49 1015.37 1015.22 1015.07 1014.91 1014.75 1014.60 1014.45 1014.30 1014.14 1013.95 1013.73 1013.47 1013.18 1012.87 1012.56 1012.28 1012.05 1011.90 1011.83 1011.84 1011.93 1012.08 1012.25 1012.42 1012.57 1012.67 1012.73 1012.75 1012.75 1012.74 1012.75 1012.79 1012.89
1017.54 1017.14 1016.81 1016.55 1016.36 1016.23 1016.14 1016.07 1016.01 1015.94 1015.84 1015.72 1015.58 1015.43 1015.27 1015.11 1014.95 1014.78 1014.61 1014.43 1014.21 1013.96 1013.68 1013.37 1013.05 1012.74 1012.46 1012.24 1012.08 1012.00 1011.99 1012.04 1012.13 1012.23 1012.34 1012.42 1012.49 1012.53 1012.55 1012.57 1012.60 1012.66 1012.77
1017.54 1017.15 1016.83 1016.58 1016.42 1016.31 1016.25 1016.22 1016.20 1016.16 1016.10 1016.01 1015.90 1015.77 1015.63 1015.48 1015.33 1015.18 1015.02 1014.85 1014.66 1014.44 1014.18 1013.88 1013.57 1013.24 1012.93 1012.65 1012.42 1012.25 1012.14 1012.10 1012.10 1012.14 1012.21 1012.28 1012.35 1012.42 1012.47 1012.53 1012.60 1012.69 1012.81
1017.48 1017.08 1016.75 1016.50 1016.34 1016.24 1016.19 1016.18 1016.19 1016.19 1016.17 1016.12 1016.05 1015.95 1015.84 1015.72 1015.60 1015.48 1015.35 1015.22 1015.06 1014.87 1014.64 1014.37 1014.06 1013.73 1013.40 1013.07 1012.78 1012.53 1012.34 1012.22 1012.16 1012.15 1012.19 1012.25 1012.34 1012.43 1012.54 1012.64 1012.75 1012.88 1013.01
1017.41 1016.99 1016.64 1016.37 1016.18 1016.06 1016.01 1016.01 1016.03 1016.06 1016.08 1016.08 1016.06 1016.01 1015.95 1015.87 1015.79 1015.71 1015.62 1015.51 1015.39 1015.23 1015.03 1014.78 1014.49 1014.16 1013.81 1013.46 1013.13 1012.83 1012.58 1012.40 1012.29 1012.25 1012.27 1012.34 1012.45 1012.58 1012.73 1012.89 1013.04 1013.20 1013.35
1017.40 1016.94 1016.55 1016.23 1016.00 1015.86 1015.78 1015.77 1015.80 1015.85 1015.90 1015.95 1015.98 1015.99 1015.99 1015.97 1015.93 1015.89 1015.83 1015.76 1015.66 1015.52 1015.34 1015.11 1014.84 1014.52 1014.17 1013.81 1013.46 1013.13 1012.86 1012.65 1012.51 1012.45 1012.47 1012.55 1012.68 1012.85 1013.05 1013.24 1013.44 1013.62 1013.79
1017.45 1016.96 1016.52 1016.15 1015.86 1015.66 1015.55 1015.51 1015.54 1015.60 1015.69 1015.79 1015.87 1015.95 1016.00 1016.03 1016.04 1016.04 1016.01 1015.95 1015.87 1015.75 1015.59 1015.38 1015.12 1014.82 1014.48 1014.13 1013.79 1013.47 1013.19 1012.98 1012.84 1012.78 1012.80 1012.90 1013.05 1013.25 1013.47 1013.70 1013.91 1014.11 1014.28
Thickness
5777 5784 5789 5793 5792 5790 5786 5783 5779 5776 5772 5765 5758 5754 5752 5752 5751 5749 5747 5745 5742 5739 5736 5734 5731 5728 5724 5721 5717 5713 5709 5705 5702 5698 5694 5695 5695 5695 5695 5696 5696 5697 5698
5767 5776 5783 5787 5791 5790 5787 5783 5777 5773 5770 5766 5760 5754 5751 5748 5747 5745 5743 5741 5739 5736 5734 5731 5728 5725 5721 5717 5713 5709 5704 5701 5698 5694 5687 5684 5685 5688 5691 5691 5691 5691 5692
5754 5766 5775 5781 5786 5788 5787 5784 5777 5770 5765 5761 5753 5747 5744 5741 5739 5737 5736 5736 5734 5732 5730 5727 5725 5721 5718 5714 5710 5706 5701 5696 5693 5692 5687 5679 5676 5680 5684 5685 5686 5686 5687
5744 5756 5765 5773 5779 5784 5785 5781 5773 5764 5756 5750 5744 5739 5736 5734 5734 5734 5732 5731 5729 5727 5725 5722 5720 5717 5714 5710 5707 5704 5700 5694 5688 5686 5685 5683 5681 5676 5674 5679 5681 5682 5683
5731 5743 5754 5763 5770 5774 5773 5769 5763 5755 5746 5739 5733 5730 5729 5729 5729 5729 5727 5725 5724 5722 5720 5718 5715 5712 5709 5706 5703 5700 5697 5693 5688 5684 5681 5678 5675 5676 5672 5670 5674 5677 5680
5718 5729 5739 5746 5751 5755 5756 5754 5749 5742 5735 5728 5723 5721 5721 5722 5723 5722 5720 5719 5718 5717 5715 5713 5710 5707 5704 5702 5699 5696 5693 5689 5686 5683 5681 5678 5673 5672 5671 5668 5669 5671 5676
5702 5713 5720 5725 5729 5732 5735 5736 5735 5729 5722 5717 5714 5715 5716 5717 5717 5717 5716 5714 5712 5711 5709 5708 5705 5702 5700 5697 5694 5690 5687 5685 5682 5680 5679 5677 5676 5675 5672 5668 5666 5666 5671
5689 5698 5705 5709 5711 5713 5716 5719 5719 5713 5710 5708 5706 5708 5710 5711 5711 5712 5711 5710 5707 5706 5705 5703 5700 5697 5694 5691 5688 5685 5683 5681 5678 5677 5675 5674 5673 5672 5671 5669 5665 5662 5664
5680 5687 5693 5696 5698 5699 5701 5704 5703 5700 5698 5700 5701 5703 5704 5705 5706 5706 5705 5704 5703 5701 5699 5696 5694 5691 5687 5685 5682 5680 5678 5676 5674 5673 5672 5670 5669 5669 5669 5668 5667 5662 5659
5672 5679 5684 5686 5688 5688 5689 5693 5692 5689 5691 5694 5697 5698 5699 5700 5701 5700 5699 5698 5697 5695 5692 5690 5686 5683 5680 5678 5676 5674 5673 5672 5671 5669 5668 5667 5666 5666 5666 5666 5666 5665 5663
5665 5671 5676 5678 5679 5679 5679 5680 5683 5685 5688 5692 5695 5696 5697 5698 5698 5697 5696 5694 5691 5689 5686 5683 5679 5676 5674 5672 5670 5669 5668 5668 5667 5666 5665 5664 5664 5663 5663 5663 5664 5664 5664
5662 5668 5671 5672 5673 5672 5673 5677 5682 5686 5689 5693 5695 5695 5696 5696 5694 5693 5691 5689 5686 5684 5681 5678 5675 5672 5670 5668 5666 5664 5664 5663 5662 5662 5661 5661 5662 5661 5662 5662 5663 5663 5664
5659 5664 5667 5668 5671 5673 5675 5680 5684 5688 5691 5693 5693 5693 5692 5692 5690 5689 5687 5684 5682 5679 5676 5674 5672 5669 5667 5665 5663 5661 5660 5660 5659 5658 5658 5658 5659 5659 5660 5661 5662 5663 5664
5653 5658 5661 5664 5669 5673 5678 5682 5686 5689 5691 5691 5691 5690 5689 5688 5687 5685 5683 5680 5678 5676 5673 5671 5669 5666 5664 5661 5660 5658 5657 5656 5655 5655 5655 5656 5656 5656 5657 5659 5660 5661 5662
5647 5651 5654 5658 5663 5669 5674 5679 5682 5685 5687 5686 5686 5685 5685 5685 5683 5681 5679 5677 5676 5674 5671 5667 5665 5663 5660 5659 5657 5655 5654 5653 5652 5652 5652 5652 5653 5654 5655 5656 5656 5658 5659
5640 5645 5649 5652 5656 5661 5666 5671 5674 5676 5679 5679 5677 5677 5678 5678 5677 5676 5675 5673 5671 5669 5666 5664 5661 5659 5658 5657 5655 5653 5650 5649 5648 5648 5648 5648 5649 5650 5652 5653 5654 5655 5654
5636 5640 5643 5646 5649 5653 5657 5660 5663 5666 5668 5668 5668 5668 5669 5669 5669 5668 5667 5666 5664 5662 5660 5658 5657 5655 5653 5652 5652 5650 5647 5645 5644 5644 5644 5644 5646 5646 5646 5647 5649 5651 5652
5633 5637 5640 5643 5645 5648 5650 5652 5655 5657 5658 5658 5659 5659 5659 5658 5658 5658 5657 5656 5654 5653 5652 5651 5650 5649 5648 5648 5648 5647 5644 5641 5640 5640 5640 5639 5640 5641 5641 5642 5643 5644 5646
5633 5637 5640 5642 5643 5644 5646 5649 5650 5651 5651 5650 5650 5650 5649 5649 5649 5648 5646 5645 5644 5643 5642 5642 5641 5641 5641 5642 5643 5642 5639 5637 5635 5635 5635 5635 5636 5638 5638 5637 5637 5638 5640
5637 5639 5641 5642 5643 5644 5645 5646 5645 5644 5643 5643 5642 5642 5642 5641 5639 5637 5636 5635 5634 5632 5632 5631 5631 5631 5631 5633 5635 5637 5634 5632 5630 5630 5630 5631 5632 5634 5635 5633 5633 5633 5635
5640 5642 5642 5641 5642 5642 5643 5641 5640 5638 5637 5636 5636 5635 5633 5632 5629 5627 5625 5624 5623 5622 5621 5620 5620 5620 5621 5622 5625 5627 5626 5625 5624 5624 5625 5626 5628 5630 5632 5631 5630 5631 5631
5640 5642 5640 5640 5641 5641 5639 5637 5635 5633 5632 5630 5628 5626 5624 5622 5620 5617 5615 5614 5613 5612 5611 5611 5610 5610 5610 5612 5613 5615 5616 5617 5616 5617 5618 5620 5623 5626 5628 5629 5629 5628 5627
5639 5641 5640 5639 5640 5639 5637 5634 5633 5631 5628 5625 5623 5620 5617 5614 5612 5609 5607 5606 5604 5603 5602 5602 5601 5601 5601 5602 5604 5604 5605 5606 5606 5608 5610 5613 5616 5619 5621 5623 5624 5623 5621
5639 5640 5640 5640 5639 5639 5638 5635 5633 5630 5626 5623 5620 5617 5614 5611 5607 5605 5603 5601 5599 5598 5596 5596 5595 5594 5594 5594 5595 5594 5594 5594 5595 5597 5600 5604 5606 5609 5611 5613 5614 5614 5614
5640 5641 5641 5641 5641 5641 5640 5638 5635 5631 5627 5624 5620 5616 5613 5609 5605 5602 5600 5598 5595 5592 5591 5589 5588 5588 5588 5587 5586 5586 5586 5585 5586 5588 5590 5593 5596 5599 5601 5603 5604 5605 5606
5641 5643 5644 5644 5645 5645 5644 5642 5639 5635 5630 5626 5622 5618 5614 5611 5607 5603 5600 5597 5594 5591 5589 5586 5584 5583 5583 5583 5582 5581 5581 5581 5581 5581 5582 5585 5588 5590 5593 5595 5596 5597 5597